Home > Weather > Leesburg > Past weeks

Flag for U.S.A. Weather for the Past 2 Weeks in Leesburg, Virginia, U.S.A.

Now
23 °F

Overcast.


Feels Like: 8 °F
Forecast: 15 / 24 °F
Wind: 21 mph from Northwest

Location: Leesburg / Godfrey

Current Time: Feb 13, 2016 at 6:51:37 AM

Latest Report: Feb 13, 2016 at 6:15 AM


Visibility: 10 mi

Pressure: 30.14 "Hg

Humidity: 58%

Dew point: 10 °F

Location of LeesburgLocation

Historic Weather in Leesburg — Graph

°F

Leesburg Temperature Yesterday

Maximum temperature yesterday: 32 °F (at 1:35 PM)
Minimum temperature yesterday: 18 °F (at 5:15 AM)
Average temperature yesterday: 26 °F

High & Low Weather Summary for the Past Weeks

 TemperatureHumidityPressure
High61 °F (Jan 31, 1:35 PM)100% (Jan 29, 5:15 AM)30.46 "Hg (Jan 29, 5:15 AM)
Low18 °F (Jan 30, 6:15 AM)39% (Jan 31, 12:35 PM)29.55 "Hg (Feb 9, 1:15 PM)
Average37 °F73%30.02 "Hg
* Reported Jan 29 5:15 AM — Feb 13 5:35 AM, Leesburg, Weather by CustomWeather, © 2016

Note: Actual official high and low records may vary slightly from our data, if they occured in-between our weather recording intervals... More about our weather records

Advertising

Leesburg Weather History for the Previous 24 Hours

 ConditionsComfort  
Time TempWeatherWind HumidityBarometerVisibility
5:35 AM
Sat, Feb 13
23 °FOvercast.25 mph58%30.10 "Hg10 mi
5:15 AM23 °FMostly cloudy.20 mph63%30.10 "Hg10 mi
4:55 AM23 °FOvercast.20 mph63%30.09 "Hg10 mi
4:35 AM23 °FPassing clouds.21 mph63%30.08 "Hg10 mi
4:15 AM23 °FPassing clouds.16 mph63%30.07 "Hg10 mi
3:55 AM25 °FClear.21 mph54%30.06 "Hg10 mi
3:15 AM27 °FPassing clouds.20 mph59%30.03 "Hg10 mi
2:55 AM27 °FOvercast.17 mph74%30.03 "Hg10 mi
2:15 AM28 °FOvercast.18 mph64%30.00 "Hg10 mi
1:55 AM28 °FMostly cloudy.17 mph64%30.00 "Hg10 mi
1:35 AM28 °FMostly cloudy.12 mph64%29.99 "Hg10 mi
1:15 AM28 °FMostly cloudy.14 mph64%29.99 "Hg10 mi
12:55 AM27 °FPassing clouds.10 mph69%29.99 "Hg10 mi
12:35 AM27 °FClear.10 mph74%29.99 "Hg10 mi
12:15 AM27 °FClear.9 mph74%30.00 "Hg10 mi
11:55 PM
Fri, Feb 12
28 °FClear.9 mph74%30.00 "Hg10 mi
11:15 PM27 °FOvercast.3 mph93%30.01 "Hg10 mi
10:35 PM28 °FMostly cloudy.3 mph86%30.00 "Hg10 mi
10:15 PM27 °FOvercast.No wind93%30.01 "Hg10 mi
9:15 PM28 °FLight snow. Overcast.8 mph86%30.01 "Hg5 mi
8:35 PM30 °FOvercast.9 mph64%30.01 "Hg10 mi
8:15 PM30 °FMostly cloudy.3 mph59%30.00 "Hg10 mi
7:55 PM30 °FOvercast.No wind64%30.00 "Hg10 mi
7:15 PM30 °FMostly cloudy.No wind55%30.00 "Hg10 mi
6:55 PM30 °FMostly cloudy.No wind51%30.00 "Hg10 mi
6:35 PM30 °FMostly cloudy.No wind51%30.00 "Hg10 mi
6:15 PM30 °FMostly cloudy.3 mph51%30.00 "Hg10 mi
5:55 PM32 °FMostly cloudy.5 mph47%29.99 "Hg10 mi
5:35 PM32 °FBroken clouds.5 mph44%29.99 "Hg10 mi
5:15 PM32 °FBroken clouds.5 mph44%29.99 "Hg10 mi
4:15 PM32 °FScattered clouds.6 mph44%30.01 "Hg10 mi
3:55 PM32 °FOvercast.7 mph44%30.01 "Hg10 mi
3:15 PM32 °FMore clouds than sun.No wind44%30.03 "Hg10 mi
2:55 PM32 °FMore clouds than sun.5 mph44%30.04 "Hg10 mi
2:15 PM32 °FOvercast.8 mph44%30.06 "Hg10 mi
1:55 PM32 °FOvercast.8 mph44%30.08 "Hg10 mi
1:35 PM32 °FMore clouds than sun.9 mph44%30.10 "Hg10 mi
1:15 PM30 °FMore clouds than sun.10 mph47%30.11 "Hg10 mi
12:55 PM30 °FOvercast.8 mph43%30.13 "Hg10 mi
12:35 PM30 °FOvercast.12 mph43%30.15 "Hg10 mi
12:15 PM30 °FOvercast.7 mph43%30.17 "Hg10 mi
11:55 AM30 °FMore clouds than sun.8 mph43%30.19 "Hg10 mi
11:35 AM30 °FOvercast.9 mph43%30.20 "Hg10 mi
11:15 AM28 °FOvercast.9 mph47%30.21 "Hg10 mi
10:55 AM28 °FBroken clouds.7 mph47%30.22 "Hg10 mi
10:35 AM27 °FPartly sunny.7 mph50%30.23 "Hg10 mi
10:15 AM27 °FPartly sunny.6 mph50%30.24 "Hg10 mi
9:55 AM27 °FOvercast.5 mph50%30.26 "Hg10 mi
9:35 AM27 °FOvercast.6 mph54%30.27 "Hg10 mi
9:15 AM25 °FOvercast.No wind54%30.28 "Hg10 mi
8:55 AM23 °FPartly sunny.No wind63%30.29 "Hg10 mi
8:15 AM21 °FOvercast.3 mph74%30.29 "Hg10 mi
7:55 AM19 °FPartly sunny.No wind73%30.29 "Hg10 mi
7:35 AM19 °FScattered clouds.No wind73%30.30 "Hg10 mi
7:15 AM18 °FScattered clouds.3 mph79%30.30 "Hg10 mi
6:55 AM18 °FClear.3 mph79%30.30 "Hg10 mi
6:15 AM19 °FClear.5 mph68%30.30 "Hg10 mi
Weather by CustomWeather, © 2016

See weather overviewHow to use our weather pages